Location: Ir�n
(42.4595°N, 0.7799°E)
Time: 19:38:33
(UTC+00:00)

Daily predictions for brighter satellites

Satellite Brightness Start Highest point End
(mag) Time Altitude Azimuth Time Altitude Azimuth Time Altitude Azimuth
Cosmos 405 Rocket 3.3 16:51:53 10° N 16:55:32 38° ENE 16:59:14 10° SE
Spot 2 4.5 16:52:38 10° S 16:57:04 79° WSW 17:01:51 10° NNW
Cosmos 1814 Rocket 4.2 16:53:14 10° SSW 16:58:35 86° WNW 17:03:56 10° NNE
Cosmos 2154 Rocket 4.3 16:52:46 10° N 16:58:54 49° ENE 17:05:00 10° SSE
YAOGAN 6 2.6 16:55:23 10° SSE 16:59:01 62° ENE 17:02:37 10° N
PSLV R/B 4.4 17:00:42 10° S 17:04:47 68° WSW 17:08:54 10° NNW
SMAP 3.2 17:00:20 10° SSE 17:04:52 55° ENE 17:09:25 10° N
Cosmos 1943 Rocket 4.0 17:05:09 10° NNE 17:05:55 10° NE 17:06:41 10° NE
SL-16 R/B 3.7 17:03:05 10° SE 17:06:19 16° E 17:09:33 10° ENE
PAYLOAD B 4.3 17:00:43 10° SSE 17:06:19 87° ENE 17:11:56 10° NNW
USA 281 4.1 17:01:53 10° ESE 17:07:03 25° NE 17:12:13 10° N
CZ-4C R/B 4.0 17:11:50 10° N 17:15:22 51° WNW 17:18:54 10° SSW
NOSS 0 Rocket 4.0 17:10:18 10° SSW 17:16:31 74° ESE 17:22:45 10° NNE
ATLAS 5 CENTAUR R/B 3.7 17:11:03 10° NW 17:16:42 47° WSW 17:23:08 10° S
Cosmos 1606 3.6 17:14:47 10° SSE 17:18:12 30° E 17:21:36 10° NNE
Cosmos 405 3.9 17:14:50 10° SSW 17:18:14 50° WNW 17:21:39 10° N
Cosmos 389 Rocket 3.5 17:15:24 10° SSE 17:18:15 24° E 17:21:05 10° NE
Cosmos 2333 Rocket 3.3 17:14:22 10° SW 17:19:46 43° WNW 17:25:11 10° NNE
CZ-2C R/B 4.3 17:16:47 10° ESE 17:20:11 18° ENE 17:23:28 10° NNE
Radarsat Rocket 4.3 17:17:23 10° SSE 17:23:16 77° WSW 17:29:43 10° NNW
Cosmos 1867 4.5 17:18:58 10° S 17:23:35 30° ESE 17:27:33 13° ENE
COSMOS 2428 3.6 17:19:25 10° SW 17:24:59 50° WNW 17:30:34 10° NNE
NOSS 2-1 (C) 4.4 17:20:29 10° NW 17:25:46 82° NE 17:33:17 10° SE
H-2A R/B 2.5 17:22:16 10° N 17:26:22 63° WNW 17:30:33 10° SSW
Cosmos 2327 Rocket 4.4 17:20:24 10° N 17:26:33 81° E 17:32:46 10° S
Cosmos 2074 Rocket 4.5 17:20:57 10° NNW 17:27:08 67° W 17:33:17 10° S
SKYMED 2 4.4 17:23:34 10° NE 17:27:23 29° E 17:31:11 10° SSE
NOSS 2-1 (D) 4.5 17:25:55 10° NW 17:31:14 89° NE 17:38:50 10° SE
Cosmos 2298 Rocket 4.0 17:26:21 10° NNW 17:31:41 90° WSW 17:36:59 10° SSE
Cosmos 1862 3.5 17:27:56 10° N 17:31:59 79° W 17:35:58 10° S
Cosmos 1818 3.6 17:27:12 10° NNW 17:32:40 64° NE 17:38:04 10° SE
Lacrosse 5 rocket 3.1 17:31:09 10° SSE 17:32:43 12° ESE 17:33:15 12° ESE
Cosmos 2150 Rocket 3.9 17:28:19 10° NNW 17:33:30 87° ENE 17:38:39 10° SSE
SL-8 Rocket 4.5 17:28:26 10° N 17:34:09 37° ENE 17:39:53 10° SE
ADEOS Rocket 4.4 17:27:01 10° N 17:34:22 53° WNW 17:41:51 10° SW
Cosmos 2181 Rocket 4.5 17:30:12 10° SSE 17:36:03 39° E 17:41:54 10° NNE
Cosmos 2278 Rocket 2.2 17:30:22 10° NNW 17:36:05 87° ENE 17:41:46 10° SSE
Cosmos 1633 Rocket 4.0 17:33:34 10° NNE 17:37:16 26° ENE 17:40:56 10° SE
CZ-4 R/B 2.6 17:37:52 19° ENE 17:37:52 19° ENE 17:40:31 10° NNE
USA 215 3.3 17:32:16 11° NE 17:38:34 88° NW 17:45:07 10° SW
SAR-Lupe-4 4.1 17:40:59 17° NE 17:43:25 38° E 17:46:46 10° S
CZ-2D R/B 3.9 17:41:43 10° SE 17:45:07 32° ENE 17:48:33 10° N
BREEZE-M DEB (TANK) 1.6 17:45:34 10° WSW 17:48:19 71° NNW 17:48:48 44° NE
IRS-1C Rocket 4.2 17:45:28 10° SE 17:50:34 52° ENE 17:55:42 10° N
Abrixas rocket 1.6 17:47:56 10° WNW 17:50:43 88° SSW 17:51:40 37° ESE
Cosmos 1125 Rocket 3.4 17:46:01 10° NNW 17:51:15 87° ENE 17:56:27 10° SSE
Meteor 2-12 Rocket 4.4 17:45:30 10° N 17:51:40 74° E 17:57:47 10° SSE
Cosmos 1939 Rocket 2.7 17:48:10 10° SSE 17:51:56 57° ENE 17:55:45 10° N
Cosmos 1356 3.4 17:49:33 10° N 17:52:55 54° ENE 17:56:16 10° SSE
Cosmos 1689 Rocket 2.9 17:53:49 31° ESE 17:53:49 31° ESE 17:56:03 10° SSE
Cosmos 44 4.5 17:49:51 10° NNW 17:54:17 27° NE 17:55:24 25° ENE
Cosmos 2219 Rocket 4.1 17:50:21 10° WSW 17:55:03 27° NW 17:59:48 10° N
ERS-2 2.1 17:51:29 10° NNE 17:55:10 84° WNW 17:58:49 10° SSW
CZ-4B R/B 4.2 17:50:47 10° S 17:55:58 49° W 18:01:07 10° NNW
ISS -3.1 17:54:34 10° WSW 17:57:49 48° NNW 17:59:04 31° NNE
SAR-Lupe-1 4.0 17:58:34 23° NNE 18:00:37 61° ESE 18:04:09 10° S
Cosmos 2237 Rocket 2.6 17:57:04 10° SW 18:02:38 64° WNW 18:08:15 10° NNE
CZ-4B R/B 2.1 18:00:14 10° N 18:03:12 48° WNW 18:06:11 10° SSW
YAOGAN 1 3.2 18:03:52 34° ENE 18:03:52 34° ENE 18:07:36 10° N
NOAA 11 4.5 17:58:28 10° S 18:03:51 69° WSW 18:09:17 10° NNW
SL-24 R/B - RUBIN 2 4.3 17:58:04 10° NW 18:04:21 81° WSW 18:09:51 10° SSE
GENESIS II 4.0 18:01:57 10° NNW 18:05:55 80° NE 18:08:28 20° SE
TELKOM 3 3.7 18:05:36 10° WSW 18:07:59 49° NW 18:07:59 49° NW
Okean-O 2.8 18:05:05 10° SE 18:09:19 47° ENE 18:13:34 10° N
USA 267 3.3 18:05:49 21° ESE 18:10:18 63° NE 18:16:43 10° NW
COSMO-SKYMED 1 2.6 18:11:12 10° N 18:15:34 82° WNW 18:19:53 10° SSW
SL-24 R/B 3.7 18:13:04 18° NNE 18:16:03 82° ESE 18:19:49 10° S
USA 81 3.9 18:12:20 10° N 18:17:38 75° E 18:22:55 10° S
Cosmos 2218 Rocket 3.8 18:11:52 10° N 18:18:00 67° E 18:24:06 10° SSE
CSL-04 Rocket 4.2 18:18:44 35° NE 18:18:44 35° NE 18:22:56 10° N
Cosmos 2369 Rocket 3.7 18:13:54 10° N 18:16:39 19° NNE 18:16:39 19° NNE
Okean O Rocket 4.0 18:19:00 10° SSW 18:22:34 25° W 18:26:09 10° NW
H-2A R/B 2.3 18:23:36 43° E 18:24:13 45° ENE 18:29:12 10° N
CZ-4 R/B 4.4 18:20:13 10° SSE 18:24:22 84° WSW 18:28:32 10° NNW
Sich 1 4.2 18:24:44 10° NNW 18:28:54 43° W 18:33:01 10° SSW
Cosmos 1933 3.6 18:25:02 10° SSW 18:29:02 67° W 18:31:27 23° N
BREEZE-M DEB (TANK) 4.0 18:27:04 10° SSW 18:29:06 19° S 18:29:06 19° S
Cosmos 2366 rocket 3.8 18:24:16 10° N 18:30:30 80° E 18:36:39 10° S
PSLV R/B 4.0 18:30:53 35° N 18:32:30 74° WNW 18:36:31 10° SSW
Cosmos 773 Rocket 3.9 18:30:48 10° S 18:35:59 66° ESE 18:36:42 59° ENE
Meteor 1-14 Rocket 4.3 18:30:52 10° N 18:36:40 55° ENE 18:38:09 44° ESE
Helios 1A Rocket 2.9 18:36:41 10° S 18:40:42 78° WSW 18:44:44 10° NNW
Cosmos 2297 3.5 18:36:25 10° NNW 18:42:08 80° ENE 18:44:22 39° SSE
Cosmos 1666 Rocket 4.5 18:39:19 10° NNW 18:43:33 48° W 18:47:47 10° SSW
Cosmos 1151 Rocket 3.5 18:40:46 10° SSW 18:45:00 58° W 18:46:44 33° NNW
Meteor 1-26 Rocket 4.3 18:41:43 10° S 18:47:42 83° W 18:53:29 11° N
Cosmos 1328 Rocket 3.9 18:43:41 10° SSW 18:47:56 62° W 18:48:56 47° NNW
SL-16 R/B 2.3 18:44:04 10° SSW 18:49:43 74° WNW 18:51:51 40° N
USA 281 3.4 18:44:26 10° SSE 18:50:58 72° WSW 18:57:33 10° NNW
Cosmos 1943 Rocket 2.7 18:45:30 10° NNW 18:49:30 43° NNE 18:49:30 43° NNE
Cosmos 489 Rocket 4.3 18:47:52 10° S 18:54:00 69° ESE 18:54:17 68° E
ARGOS 4.4 18:57:17 28° N 18:57:17 28° N 18:59:48 10° N
MOS 1 Rocket 3.7 18:53:31 31° N 18:56:14 77° WNW 19:01:40 10° SSW
CZ-2C R/B 3.5 18:54:28 10° S 18:59:39 59° W 19:04:34 10° NNW
Cosmos 1867 4.5 19:01:49 10° WSW 19:06:59 44° NW 19:08:14 38° NNW
Cosmos 2285 Rocket 4.2 19:01:52 10° NNW 19:08:15 69° WSW 19:13:31 15° S
Lacrosse 5 rocket 3.5 19:07:44 10° SW 19:08:55 19° WSW 19:08:55 19° WSW
CZ-4 R/B 3.4 19:13:54 24° WNW 19:13:54 24° WNW 19:16:02 10° NNW
H-2A R/B (2) 4.5 18:53:20 10° W 19:20:29 32° SW 19:24:29 21° S
USA 215 4.3 19:19:37 32° N 19:21:07 36° NNW 19:26:56 10° W
USA 267 4.1 19:53:12 40° SW 19:53:29 40° SW 19:59:34 10° WNW
Cosmos 2369 Rocket 4.4 19:57:08 10° NNW 19:58:28 18° NNW 19:58:28 18° NNW
H-2A R/B 4.2 20:04:13 24° W 20:04:13 24° W 20:08:01 10° NW
ATLAS CENTAUR R/B 4.5 20:06:18 10° NW 20:21:28 49° WSW 20:21:56 48° WSW
